TimePST,TemperatureF,Dew PointF,Humidity,Sea Level PressureIn,VisibilityMPH,Wind Direction,Wind SpeedMPH,Gust SpeedMPH,PrecipitationIn,Events,Conditions,WindDirDegrees,DateUTC
12:56 AM,46.9,32.0,56,30.12,10.0,WSW,10.4,20.7,N/A,,Clear,240,2012-11-20 08:56:00
1:56 AM,48.0,32.0,54,30.11,10.0,WSW,6.9,19.6,N/A,,Overcast,240,2012-11-20 09:56:00
2:56 AM,48.0,32.0,54,30.10,10.0,SSW,17.3,24.2,N/A,,Overcast,200,2012-11-20 10:56:00
3:56 AM,45.0,32.0,60,30.12,10.0,Calm,Calm,-,N/A,,Mostly Cloudy,0,2012-11-20 11:56:00
4:56 AM,46.0,30.9,56,30.12,10.0,SW,13.8,23.0,N/A,,Partly Cloudy,220,2012-11-20 12:56:00
5:56 AM,44.1,30.9,60,30.13,10.0,Variable,5.8,-,N/A,,Clear,0,2012-11-20 13:56:00
6:56 AM,43.0,30.9,62,30.13,10.0,Variable,3.5,-,N/A,,Clear,0,2012-11-20 14:56:00
7:56 AM,48.0,30.9,52,30.11,10.0,WSW,4.6,-,N/A,,Clear,250,2012-11-20 15:56:00
8:56 AM,51.1,30.0,44,30.10,10.0,SSW,6.9,21.9,N/A,,Clear,200,2012-11-20 16:56:00
9:56 AM,54.0,28.9,38,30.06,10.0,South,15.0,25.3,N/A,,Clear,180,2012-11-20 17:56:00
10:56 AM,55.0,28.9,37,30.01,10.0,South,15.0,24.2,N/A,,Clear,190,2012-11-20 18:56:00
12:56 PM,59.0,30.0,33,29.94,10.0,South,17.3,26.5,N/A,,Clear,170,2012-11-20 20:56:00
1:56 PM,60.1,30.9,33,29.92,10.0,WSW,8.1,-,N/A,,Clear,240,2012-11-20 21:56:00
2:56 PM,59.0,30.0,33,29.92,10.0,South,13.8,21.9,N/A,,Clear,190,2012-11-20 22:56:00
3:56 PM,57.0,30.0,36,29.94,10.0,SSW,6.9,-,N/A,,Clear,200,2012-11-20 23:56:00
4:56 PM,55.0,28.9,37,29.93,10.0,South,17.3,27.6,N/A,,Clear,170,2012-11-21 00:56:00
5:56 PM,52.0,28.9,41,29.96,10.0,WSW,8.1,-,N/A,,Clear,250,2012-11-21 01:56:00
6:56 PM,48.9,28.9,46,29.97,10.0,WSW,8.1,-,N/A,,Clear,240,2012-11-21 02:56:00
7:56 PM,51.1,28.9,43,29.94,10.0,WSW,13.8,20.7,N/A,,Clear,250,2012-11-21 03:56:00
8:56 PM,48.0,28.9,48,29.94,10.0,WSW,10.4,-,N/A,,Clear,250,2012-11-21 04:56:00
9:56 PM,48.0,28.9,48,29.93,10.0,Calm,Calm,-,N/A,,Clear,0,2012-11-21 05:56:00
10:56 PM,46.0,28.9,51,29.93,10.0,West,8.1,-,N/A,,Clear,260,2012-11-21 06:56:00
11:56 PM,46.9,28.9,50,29.92,10.0,WSW,6.9,-,N/A,,Clear,240,2012-11-21 07:56:00